Regional Weather Roundup
Issued by NWS Albany, NY

Home | Current Version | Previous Version | Graphics & Text | Print | Product List | Glossary Off
Versions: 1 2 3 4 5 6 7 8 9 10 11 12 13 14 15 16 17 18 19 20 21 22 23 24 25 26 27 28 29 30 31 32 33 34 35 36 37 38 39 40 41 42 43 44 45 46 47 48 49 50

000
ASUS41 KALY 211510
RWRALY

NEW YORK STATE HOURLY WEATHER ROUNDUP
NATIONAL WEATHER SERVICE ALBANY NY
1100 AM EDT SUN SEP 21 2014

NOTE: "FAIR" INDICATES FEW OR NO CLOUDS BELOW 12,000 FEET WITH NO
SIGNIFICANT WEATHER AND/OR NO OBSTRUCTIONS TO VISIBILITY.

NYZ032-033-038>043-046>054-057>066-NYZ062>081-211600-
EAST


CITY           SKY/WX    TMP DP  RH WIND       PRES   REMARKS
ALBANY         PTSUNNY   72  61  68 S15G24    29.82F
GLENS FALLS    SUNNY     72  61  68 S10G21    29.80F
POUGHKEEPSIE   CLOUDY    69  64  84 CALM      29.85F
NEWBURGH       CLOUDY    66  66 100 CALM      29.88F
MONTGOMERY     MOSUNNY   71  62  73 S6        29.84F
WHITE PLAINS   FOG       69  67  93 CALM      29.86F VSB 1/2
ISLIP          CLOUDY    74  68  81 SE8       29.85F
NEW YORK CITY  CLOUDY    71  67  87 NE5       29.84F
CENTRAL PARK   CLOUDY    72  67  84 CALM      29.88F HAZE
$$

NYZ005>009-017-018-044>046-055-056-211600-
CENTRAL


CITY           SKY/WX    TMP DP  RH WIND       PRES   REMARKS
FULTON         CLOUDY    71  62  73 S9        29.66F
SYRACUSE       PTSUNNY   74  62  66 S14       29.68F
ROME           CLOUDY    73  63  70 SE8       29.73F
ELMIRA         PTSUNNY   76  63  64 SW10      29.73F
BINGHAMTON     SUNNY     70  61  73 S9G20     29.80F
MONTICELLO     SUNNY     70  57  64 S8        29.88F
$$

NYZ026>034-041>043-211600-
NORTH


CITY           SKY/WX    TMP DP  RH WIND       PRES   REMARKS
WATERTOWN      LGT RAIN  71  58  63 S8        29.65F
FORT DRUM      NOT AVBL
MASSENA        PTSUNNY   73  63  70 S14       29.66F
SARANAC LAKE   PTSUNNY   68  58  70 SW16      29.73F
PLATTSBURGH    MOSUNNY   71  59  65 S12       29.71F
$$

NYZ001>004-010>016-019>021-211600-
WEST


CITY           SKY/WX    TMP DP  RH WIND       PRES   REMARKS
NIAGARA FALLS  CLOUDY    71  65  81 SW25G38   29.58F
BUFFALO        PTSUNNY   72  64  76 SW22G33   29.60F
DUNKIRK        CLOUDY    73  64  73 SW21G29   29.64S
JAMESTOWN      CLOUDY    64  63  94 SW10G21   29.71S
WELLSVILLE     LGT RAIN  65  62  90 S13G20    29.76F
ROCHESTER      LGT RAIN  70  64  81 S17G24    29.62F
PENN YAN       PTSUNNY   67  62  84 SW10      29.70F
$$

             KEY
       WCI = WIND CHILL INDEX
       VSB = VISIBILITY
       HX  = HEAT INDEX
$$


USA.gov is the U.S. government's official web portal to all federal, state and local government web resources and services.